Year,Month,Day,Hour,Minute,Value (Times are PST for temperature in C)
2018,04,25,00,00,9.30
2018,04,25,00,01,9.30
2018,04,25,00,02,9.30
2018,04,25,00,03,9.30
2018,04,25,00,04,9.30
2018,04,25,00,05,9.30
2018,04,25,00,06,9.20
2018,04,25,00,07,9.20
2018,04,25,00,08,9.20
2018,04,25,00,09,9.20
2018,04,25,00,10,9.20
2018,04,25,00,11,9.20
2018,04,25,00,12,9.20
2018,04,25,00,13,9.20
2018,04,25,00,14,9.10
2018,04,25,00,15,9.10
2018,04,25,00,16,9.00
2018,04,25,00,17,9.00
2018,04,25,00,18,9.00
2018,04,25,00,19,8.90
2018,04,25,00,20,8.90
2018,04,25,00,21,8.90
2018,04,25,00,22,8.90
2018,04,25,00,23,8.90
2018,04,25,00,24,8.90
2018,04,25,00,25,8.90
2018,04,25,00,26,8.90
2018,04,25,00,27,8.90
2018,04,25,00,28,8.90
2018,04,25,00,29,8.90
2018,04,25,00,30,9.00
2018,04,25,00,31,9.00
2018,04,25,00,32,9.10
2018,04,25,00,33,9.10
2018,04,25,00,34,9.10
2018,04,25,00,35,9.00
2018,04,25,00,36,9.00
2018,04,25,00,37,9.00
2018,04,25,00,38,8.90
2018,04,25,00,39,8.90
2018,04,25,00,40,8.90
2018,04,25,00,41,8.90
2018,04,25,00,42,8.90
2018,04,25,00,43,8.90
2018,04,25,00,44,8.80
2018,04,25,00,45,8.80
2018,04,25,00,46,8.80
2018,04,25,00,47,8.90
2018,04,25,00,48,8.90
2018,04,25,00,49,8.90
2018,04,25,00,50,8.90
2018,04,25,00,51,8.90
2018,04,25,00,52,8.90
2018,04,25,00,53,8.80
2018,04,25,00,54,8.80
2018,04,25,00,55,8.80
2018,04,25,00,56,8.80
2018,04,25,00,57,8.80
2018,04,25,00,58,8.80
2018,04,25,00,59,8.70
2018,04,25,01,00,8.70
2018,04,25,01,01,8.70
2018,04,25,01,02,8.60
2018,04,25,01,03,8.60
2018,04,25,01,04,8.60
2018,04,25,01,05,8.50
2018,04,25,01,06,8.50
2018,04,25,01,07,8.50
2018,04,25,01,08,8.40
2018,04,25,01,09,8.40
2018,04,25,01,10,8.40
2018,04,25,01,11,8.40
2018,04,25,01,12,8.40
2018,04,25,01,13,8.40
2018,04,25,01,14,8.40
2018,04,25,01,15,8.40
2018,04,25,01,16,8.40
2018,04,25,01,17,8.40
2018,04,25,01,18,8.40
2018,04,25,01,19,8.40
2018,04,25,01,20,8.40
2018,04,25,01,21,8.40
2018,04,25,01,22,8.40
2018,04,25,01,23,8.40
2018,04,25,01,24,8.50
2018,04,25,01,25,8.50
2018,04,25,01,26,8.50
2018,04,25,01,27,8.40
2018,04,25,01,28,8.40
2018,04,25,01,29,8.40
2018,04,25,01,30,8.40
2018,04,25,01,31,8.50
2018,04,25,01,32,8.50
2018,04,25,01,33,8.50
2018,04,25,01,34,8.40
2018,04,25,01,35,8.40
2018,04,25,01,36,8.40
2018,04,25,01,37,8.40
2018,04,25,01,38,8.40
2018,04,25,01,39,8.30
2018,04,25,01,40,8.30
2018,04,25,01,41,8.30
2018,04,25,01,42,8.30
2018,04,25,01,43,8.30
2018,04,25,01,44,8.30
2018,04,25,01,45,8.30
2018,04,25,01,46,8.30
2018,04,25,01,47,8.30
2018,04,25,01,48,8.30
2018,04,25,01,49,8.30
2018,04,25,01,50,8.30
2018,04,25,01,51,8.40
2018,04,25,01,52,8.40
2018,04,25,01,53,8.40
2018,04,25,01,54,8.40
2018,04,25,01,55,8.40
2018,04,25,01,56,8.40
2018,04,25,01,57,8.40
2018,04,25,01,58,8.40
2018,04,25,01,59,8.40
2018,04,25,02,00,8.40
2018,04,25,02,01,8.40
2018,04,25,02,02,8.40
2018,04,25,02,03,8.40
2018,04,25,02,04,8.30
2018,04,25,02,05,8.30
2018,04,25,02,06,8.30
2018,04,25,02,07,8.30
2018,04,25,02,08,8.40
2018,04,25,02,09,8.40
2018,04,25,02,10,8.40
2018,04,25,02,11,8.40
2018,04,25,02,12,8.50
2018,04,25,02,13,8.50
2018,04,25,02,14,8.50
2018,04,25,02,15,8.50
2018,04,25,02,16,8.50
2018,04,25,02,17,8.50
2018,04,25,02,18,8.50
2018,04,25,02,19,8.50
2018,04,25,02,20,8.50
2018,04,25,02,21,8.50
2018,04,25,02,22,8.50
2018,04,25,02,23,8.50
2018,04,25,02,24,8.50
2018,04,25,02,25,8.50
2018,04,25,02,26,8.50
2018,04,25,02,27,8.50
2018,04,25,02,28,8.50
2018,04,25,02,29,8.50
2018,04,25,02,30,8.50
2018,04,25,02,31,8.50
2018,04,25,02,32,8.50
2018,04,25,02,33,8.50
2018,04,25,02,34,8.50
2018,04,25,02,35,8.50
2018,04,25,02,36,8.50
2018,04,25,02,37,8.50
2018,04,25,02,38,8.50
2018,04,25,02,39,8.50
2018,04,25,02,40,8.50
2018,04,25,02,41,8.40
2018,04,25,02,42,8.40
2018,04,25,02,43,8.40
2018,04,25,02,44,8.40
2018,04,25,02,45,8.40
2018,04,25,02,46,8.30
2018,04,25,02,47,8.30
2018,04,25,02,48,8.30
2018,04,25,02,49,8.30
2018,04,25,02,50,8.30
2018,04,25,02,51,8.30
2018,04,25,02,52,8.30
2018,04,25,02,53,8.30
2018,04,25,02,54,8.30
2018,04,25,02,55,8.30
2018,04,25,02,56,8.30
2018,04,25,02,57,8.30
2018,04,25,02,58,8.30
2018,04,25,02,59,8.30
2018,04,25,03,00,8.20
2018,04,25,03,01,8.20
2018,04,25,03,02,8.30
2018,04,25,03,03,8.30
2018,04,25,03,04,8.30
2018,04,25,03,05,8.30
2018,04,25,03,06,8.30
2018,04,25,03,07,8.30
2018,04,25,03,08,8.30
2018,04,25,03,09,8.30
2018,04,25,03,10,8.30
2018,04,25,03,11,8.30
2018,04,25,03,12,8.30
2018,04,25,03,13,8.30
2018,04,25,03,14,8.30
2018,04,25,03,15,8.20
2018,04,25,03,16,8.20
2018,04,25,03,17,8.20
2018,04,25,03,18,8.20
2018,04,25,03,19,8.20
2018,04,25,03,20,8.20
2018,04,25,03,21,8.20
2018,04,25,03,22,8.20
2018,04,25,03,23,8.20
2018,04,25,03,24,8.20
2018,04,25,03,25,8.20
2018,04,25,03,26,8.10
2018,04,25,03,27,8.10
2018,04,25,03,28,8.10
2018,04,25,03,29,8.10
2018,04,25,03,30,8.00
2018,04,25,03,31,8.00
2018,04,25,03,32,7.90
2018,04,25,03,33,7.90
2018,04,25,03,34,7.90
2018,04,25,03,35,7.90
2018,04,25,03,36,7.90
2018,04,25,03,37,7.90
2018,04,25,03,38,7.90
2018,04,25,03,39,7.90
2018,04,25,03,40,7.90
2018,04,25,03,41,7.90
2018,04,25,03,42,7.90
2018,04,25,03,43,7.90
2018,04,25,03,44,7.80
2018,04,25,03,45,7.80
2018,04,25,03,46,7.80
2018,04,25,03,47,7.80
2018,04,25,03,48,7.70
2018,04,25,03,49,7.70
2018,04,25,03,50,7.70
2018,04,25,03,51,7.60
2018,04,25,03,52,7.60
2018,04,25,03,53,7.60
2018,04,25,03,54,7.60
2018,04,25,03,55,7.60
2018,04,25,03,56,7.50
2018,04,25,03,57,7.50
2018,04,25,03,58,7.50
2018,04,25,03,59,7.50
2018,04,25,04,00,7.50
2018,04,25,04,01,7.50
2018,04,25,04,02,7.40
2018,04,25,04,03,7.50
2018,04,25,04,04,7.50
2018,04,25,04,05,7.50
2018,04,25,04,06,7.50
2018,04,25,04,07,7.50
2018,04,25,04,08,7.50
2018,04,25,04,09,7.40
2018,04,25,04,10,7.50
2018,04,25,04,11,7.40
2018,04,25,04,12,7.40
2018,04,25,04,13,7.40
2018,04,25,04,14,7.40
2018,04,25,04,15,7.40
2018,04,25,04,16,7.40
2018,04,25,04,17,7.40
2018,04,25,04,18,7.40
2018,04,25,04,19,7.40
2018,04,25,04,20,7.40
2018,04,25,04,21,7.40
2018,04,25,04,22,7.40
2018,04,25,04,23,7.40
2018,04,25,04,24,7.30
2018,04,25,04,25,7.30
2018,04,25,04,26,7.30
2018,04,25,04,27,7.30
2018,04,25,04,28,7.30
2018,04,25,04,29,7.30
2018,04,25,04,30,7.30
2018,04,25,04,31,7.30
2018,04,25,04,32,7.30
2018,04,25,04,33,7.30
2018,04,25,04,34,7.30
2018,04,25,04,35,7.30
2018,04,25,04,36,7.30
2018,04,25,04,37,7.30
2018,04,25,04,38,7.20
2018,04,25,04,39,7.20
2018,04,25,04,40,7.20
2018,04,25,04,41,7.20
2018,04,25,04,42,7.20
2018,04,25,04,43,7.20
2018,04,25,04,44,7.20
2018,04,25,04,45,7.10
2018,04,25,04,46,7.10
2018,04,25,04,47,7.10
2018,04,25,04,48,7.10
2018,04,25,04,49,7.10
2018,04,25,04,50,7.10
2018,04,25,04,51,7.10
2018,04,25,04,52,7.00
2018,04,25,04,53,7.00
2018,04,25,04,54,7.00
2018,04,25,04,55,7.00
2018,04,25,04,56,6.90
2018,04,25,04,57,6.90
2018,04,25,04,58,6.90
2018,04,25,04,59,6.90
2018,04,25,05,00,6.80
2018,04,25,05,01,6.80
2018,04,25,05,02,6.80
2018,04,25,05,03,6.80
2018,04,25,05,04,6.80
2018,04,25,05,05,6.80
2018,04,25,05,06,6.90
2018,04,25,05,07,6.90
2018,04,25,05,08,7.00
2018,04,25,05,09,7.00
2018,04,25,05,10,7.00
2018,04,25,05,11,7.00
2018,04,25,05,12,7.00
2018,04,25,05,13,6.90
2018,04,25,05,14,6.90
2018,04,25,05,15,6.90
2018,04,25,05,16,6.90
2018,04,25,05,17,6.90
2018,04,25,05,18,6.90
2018,04,25,05,19,6.90
2018,04,25,05,20,6.90
2018,04,25,05,21,6.90
2018,04,25,05,22,6.80
2018,04,25,05,23,6.80
2018,04,25,05,24,6.80
2018,04,25,05,25,6.80
2018,04,25,05,26,6.80
2018,04,25,05,27,6.80
2018,04,25,05,28,6.80
2018,04,25,05,29,6.80
2018,04,25,05,30,6.80
2018,04,25,05,31,6.70
2018,04,25,05,32,6.70
2018,04,25,05,33,6.70
2018,04,25,05,34,6.70
2018,04,25,05,35,6.70
2018,04,25,05,36,6.70
2018,04,25,05,37,6.80
2018,04,25,05,38,6.80
2018,04,25,05,39,6.80
2018,04,25,05,40,6.80
2018,04,25,05,41,6.80
2018,04,25,05,42,6.80
2018,04,25,05,43,6.80
2018,04,25,05,44,6.80
2018,04,25,05,45,6.80
2018,04,25,05,46,6.80
2018,04,25,05,47,6.80
2018,04,25,05,48,6.80
2018,04,25,05,49,6.90
2018,04,25,05,50,6.90
2018,04,25,05,51,6.90
2018,04,25,05,52,6.90
2018,04,25,05,53,7.00
2018,04,25,05,54,7.00
2018,04,25,05,55,7.00
2018,04,25,05,56,7.00
2018,04,25,05,57,7.00
2018,04,25,05,58,7.00
2018,04,25,05,59,7.00
2018,04,25,06,00,7.00
2018,04,25,06,01,7.00
2018,04,25,06,02,7.00
2018,04,25,06,03,7.00
2018,04,25,06,04,7.00
2018,04,25,06,05,7.00
2018,04,25,06,06,7.00
2018,04,25,06,07,7.00
2018,04,25,06,08,7.10
2018,04,25,06,09,7.10
2018,04,25,06,10,7.10
2018,04,25,06,11,7.10
2018,04,25,06,12,7.10
2018,04,25,06,13,7.10
2018,04,25,06,14,7.10
2018,04,25,06,15,7.10
2018,04,25,06,16,7.10
2018,04,25,06,17,7.10
2018,04,25,06,18,7.10
2018,04,25,06,19,7.10
2018,04,25,06,20,7.10
2018,04,25,06,21,7.10
2018,04,25,06,22,7.10
2018,04,25,06,23,7.10
2018,04,25,06,24,7.10
2018,04,25,06,25,7.00
2018,04,25,06,26,7.00
2018,04,25,06,27,7.00
2018,04,25,06,28,7.00
2018,04,25,06,29,7.00
2018,04,25,06,30,7.00
2018,04,25,06,31,7.00
2018,04,25,06,32,7.00
2018,04,25,06,33,7.10
2018,04,25,06,34,7.10
2018,04,25,06,35,7.10
2018,04,25,06,36,7.10
2018,04,25,06,37,7.10
2018,04,25,06,38,7.10
2018,04,25,06,39,7.20
2018,04,25,06,40,7.20
2018,04,25,06,41,7.20
2018,04,25,06,42,7.30
2018,04,25,06,43,7.30
2018,04,25,06,44,7.30
2018,04,25,06,45,7.40
2018,04,25,06,46,7.40
2018,04,25,06,47,7.50
2018,04,25,06,48,7.60
2018,04,25,06,49,7.70
2018,04,25,06,50,7.80
2018,04,25,06,51,7.80
2018,04,25,06,52,7.80
2018,04,25,06,53,7.80
2018,04,25,06,54,7.80
2018,04,25,06,55,8.30
2018,04,25,06,56,8.70
2018,04,25,06,57,8.80
2018,04,25,06,58,9.00
2018,04,25,06,59,9.20
2018,04,25,07,00,9.40
2018,04,25,07,01,9.50
2018,04,25,07,02,9.80
2018,04,25,07,03,9.90
2018,04,25,07,04,10.10
2018,04,25,07,05,10.30
2018,04,25,07,06,10.50
2018,04,25,07,07,10.60
2018,04,25,07,08,10.80
2018,04,25,07,09,10.90
2018,04,25,07,10,11.10
2018,04,25,07,11,11.20
2018,04,25,07,12,11.30
2018,04,25,07,13,11.40
2018,04,25,07,14,11.50
2018,04,25,07,15,11.50
2018,04,25,07,16,11.60
2018,04,25,07,17,11.70
2018,04,25,07,18,11.80
2018,04,25,07,19,11.90
2018,04,25,07,20,11.90
2018,04,25,07,21,12.00
2018,04,25,07,22,12.10
2018,04,25,07,23,12.10
2018,04,25,07,24,12.20
2018,04,25,07,25,12.20
2018,04,25,07,26,12.20
2018,04,25,07,27,12.30
2018,04,25,07,28,12.30
2018,04,25,07,29,12.40
2018,04,25,07,30,12.50
2018,04,25,07,31,12.50
2018,04,25,07,32,12.60
2018,04,25,07,33,12.60
2018,04,25,07,34,12.70
2018,04,25,07,35,12.70
2018,04,25,07,36,12.70
2018,04,25,07,37,12.80
2018,04,25,07,38,12.80
2018,04,25,07,39,12.80
2018,04,25,07,40,12.90
2018,04,25,07,41,12.90
2018,04,25,07,42,12.90
2018,04,25,07,43,12.90
2018,04,25,07,44,13.00
2018,04,25,07,45,13.00
2018,04,25,07,46,13.00
2018,04,25,07,47,13.10
2018,04,25,07,48,13.10
2018,04,25,07,49,13.10
2018,04,25,07,50,13.20
2018,04,25,07,51,13.20
2018,04,25,07,52,13.20
2018,04,25,07,53,13.20
2018,04,25,07,54,13.20
2018,04,25,07,55,13.20
2018,04,25,07,56,13.30
2018,04,25,07,57,13.30
2018,04,25,07,58,13.30
2018,04,25,07,59,13.30
2018,04,25,08,00,13.30
2018,04,25,08,01,13.40
2018,04,25,08,02,13.40
2018,04,25,08,03,13.40
2018,04,25,08,04,13.40
2018,04,25,08,05,13.40
2018,04,25,08,06,13.40
2018,04,25,08,07,13.40
2018,04,25,08,08,13.40
2018,04,25,08,09,13.40
2018,04,25,08,10,13.40
2018,04,25,08,11,13.40
2018,04,25,08,12,13.40
2018,04,25,08,13,13.30
2018,04,25,08,14,13.30
2018,04,25,08,15,13.30
2018,04,25,08,16,13.30
2018,04,25,08,17,13.30
2018,04,25,08,18,13.30
2018,04,25,08,19,13.30
2018,04,25,08,20,13.30
2018,04,25,08,21,13.30
2018,04,25,08,22,13.30
2018,04,25,08,23,13.30
2018,04,25,08,24,13.30
2018,04,25,08,25,13.30
2018,04,25,08,26,13.30
2018,04,25,08,27,13.30
2018,04,25,08,28,13.30
2018,04,25,08,29,13.30
2018,04,25,08,30,13.40
2018,04,25,08,31,13.40
2018,04,25,08,32,13.40
2018,04,25,08,33,13.40
2018,04,25,08,34,13.40
2018,04,25,08,35,13.40
2018,04,25,08,36,13.50
2018,04,25,08,37,13.50
2018,04,25,08,38,13.50
2018,04,25,08,39,13.60
2018,04,25,08,40,13.60
2018,04,25,08,41,13.60
2018,04,25,08,42,13.70
2018,04,25,08,43,13.70
2018,04,25,08,44,13.70
2018,04,25,08,45,13.70
2018,04,25,08,46,13.70
2018,04,25,08,47,13.80
2018,04,25,08,48,13.80
2018,04,25,08,49,13.80
2018,04,25,08,50,13.80
2018,04,25,08,51,13.80
2018,04,25,08,52,13.80
2018,04,25,08,53,13.80
2018,04,25,08,54,13.80
2018,04,25,08,55,13.80
2018,04,25,08,56,13.80
2018,04,25,08,57,13.80
2018,04,25,08,58,13.80
2018,04,25,08,59,13.80
2018,04,25,09,00,13.90
2018,04,25,09,01,13.90
2018,04,25,09,02,13.90
2018,04,25,09,03,13.90
2018,04,25,09,04,13.90
2018,04,25,09,05,13.90
2018,04,25,09,06,13.90
2018,04,25,09,07,13.90
2018,04,25,09,08,13.90
2018,04,25,09,09,13.90
2018,04,25,09,10,13.90
2018,04,25,09,11,13.90
2018,04,25,09,12,13.90
2018,04,25,09,13,13.90
2018,04,25,09,14,14.00
2018,04,25,09,15,14.00
2018,04,25,09,16,14.00
2018,04,25,09,17,14.00
2018,04,25,09,18,14.00
2018,04,25,09,19,14.10
2018,04,25,09,20,14.10
2018,04,25,09,21,14.10
2018,04,25,09,22,14.10
2018,04,25,09,23,14.10
2018,04,25,09,24,14.20
2018,04,25,09,25,14.20
2018,04,25,09,26,14.10
2018,04,25,09,27,14.10
2018,04,25,09,28,14.10
2018,04,25,09,29,14.10
2018,04,25,09,30,14.10
2018,04,25,09,31,14.10
2018,04,25,09,32,14.10
2018,04,25,09,33,14.20
2018,04,25,09,34,14.20
2018,04,25,09,35,14.20
2018,04,25,09,36,14.20
2018,04,25,09,37,14.20
2018,04,25,09,38,14.20
2018,04,25,09,39,14.20
2018,04,25,09,40,14.20
2018,04,25,09,41,14.20
2018,04,25,09,42,14.30
2018,04,25,09,43,14.30
2018,04,25,09,44,14.30
2018,04,25,09,45,14.30
2018,04,25,09,46,14.30
2018,04,25,09,47,14.30
2018,04,25,09,48,14.30
2018,04,25,09,49,14.40
2018,04,25,09,50,14.40
2018,04,25,09,51,14.40
2018,04,25,09,52,14.40
2018,04,25,09,53,14.40
2018,04,25,09,54,14.40
2018,04,25,09,55,14.40
2018,04,25,09,56,14.40
2018,04,25,09,57,14.40
2018,04,25,09,58,14.40
2018,04,25,09,59,14.40
2018,04,25,10,00,14.40
2018,04,25,10,01,14.40
2018,04,25,10,02,14.50
2018,04,25,10,03,14.50
2018,04,25,10,04,14.50
2018,04,25,10,05,14.50
2018,04,25,10,06,14.50
2018,04,25,10,07,14.60
2018,04,25,10,08,14.60
2018,04,25,10,09,14.60
2018,04,25,10,10,14.60
2018,04,25,10,11,14.60
2018,04,25,10,12,14.50
2018,04,25,10,13,14.50
2018,04,25,10,14,14.50
2018,04,25,10,15,14.50
2018,04,25,10,16,14.50
2018,04,25,10,17,14.50
2018,04,25,10,18,14.50
2018,04,25,10,19,14.40
2018,04,25,10,20,14.40
2018,04,25,10,21,14.40
2018,04,25,10,22,14.40
2018,04,25,10,23,14.40
2018,04,25,10,24,14.40
2018,04,25,10,25,14.40
2018,04,25,10,26,14.40
2018,04,25,10,27,14.50
2018,04,25,10,28,14.50
2018,04,25,10,29,14.50
2018,04,25,10,30,14.50
2018,04,25,10,31,14.60
2018,04,25,10,32,14.60
2018,04,25,10,33,14.60
2018,04,25,10,34,14.70
2018,04,25,10,35,14.70
2018,04,25,10,36,14.70
2018,04,25,10,37,14.70
2018,04,25,10,38,14.70
2018,04,25,10,39,14.70
2018,04,25,10,40,14.70
2018,04,25,10,41,14.70
2018,04,25,10,42,14.70
2018,04,25,10,43,14.70
2018,04,25,10,44,14.80
2018,04,25,10,45,14.80
2018,04,25,10,46,14.80
2018,04,25,10,47,14.80
2018,04,25,10,48,14.80
2018,04,25,10,49,14.80
2018,04,25,10,50,14.70
2018,04,25,10,51,14.70
2018,04,25,10,52,14.70
2018,04,25,10,53,14.70
2018,04,25,10,54,14.70
2018,04,25,10,55,14.70
2018,04,25,10,56,14.70
2018,04,25,10,57,14.60
2018,04,25,10,58,14.60
2018,04,25,10,59,14.70
2018,04,25,11,00,14.70
2018,04,25,11,01,14.70
2018,04,25,11,02,14.70
2018,04,25,11,03,14.70
2018,04,25,11,04,14.70
2018,04,25,11,05,14.70
2018,04,25,11,06,14.70
2018,04,25,11,07,14.70
2018,04,25,11,08,14.70
2018,04,25,11,09,14.70
2018,04,25,11,10,14.70
2018,04,25,11,11,14.70
2018,04,25,11,12,14.80
2018,04,25,11,13,14.80
2018,04,25,11,14,14.80
2018,04,25,11,15,14.80
2018,04,25,11,16,14.80
2018,04,25,11,17,14.80
2018,04,25,11,18,14.80
2018,04,25,11,19,14.90
2018,04,25,11,20,14.90
2018,04,25,11,21,14.90
2018,04,25,11,22,15.00
2018,04,25,11,23,15.00
2018,04,25,11,24,15.00
2018,04,25,11,25,15.00
2018,04,25,11,26,15.00
2018,04,25,11,27,15.00
2018,04,25,11,28,15.00
2018,04,25,11,29,14.90
2018,04,25,11,30,14.90
2018,04,25,11,31,14.90
2018,04,25,11,32,14.90
2018,04,25,11,33,15.00
2018,04,25,11,34,15.00
2018,04,25,11,35,15.00
2018,04,25,11,36,15.00
2018,04,25,11,37,15.10
2018,04,25,11,38,15.10
2018,04,25,11,39,15.10
2018,04,25,11,40,15.10
2018,04,25,11,41,15.10
2018,04,25,11,42,15.10
2018,04,25,11,43,15.20
2018,04,25,11,44,15.20
2018,04,25,11,45,15.20
2018,04,25,11,46,15.20
2018,04,25,11,47,15.30
2018,04,25,11,48,15.30
2018,04,25,11,49,15.30
2018,04,25,11,50,15.30
2018,04,25,11,51,15.40
2018,04,25,11,52,15.40
2018,04,25,11,53,15.40
2018,04,25,11,54,15.40
2018,04,25,11,55,15.40
2018,04,25,11,56,15.40
2018,04,25,11,57,15.50
2018,04,25,11,58,15.50
2018,04,25,11,59,15.50
2018,04,25,12,00,15.60
2018,04,25,12,01,15.60
2018,04,25,12,02,15.60
2018,04,25,12,03,15.60
2018,04,25,12,04,15.60
2018,04,25,12,05,15.60
2018,04,25,12,06,15.60
2018,04,25,12,07,15.70
2018,04,25,12,08,15.70
2018,04,25,12,09,15.70
2018,04,25,12,10,15.70
2018,04,25,12,11,15.70
2018,04,25,12,12,15.70
2018,04,25,12,13,15.70
2018,04,25,12,14,15.70
2018,04,25,12,15,15.70
2018,04,25,12,16,15.80
2018,04,25,12,17,15.80
2018,04,25,12,18,15.80
2018,04,25,12,19,15.80
2018,04,25,12,20,15.80
2018,04,25,12,21,15.80
2018,04,25,12,22,15.80
2018,04,25,12,23,15.80
2018,04,25,12,24,15.80
2018,04,25,12,25,15.80
2018,04,25,12,26,15.80
2018,04,25,12,27,15.80
2018,04,25,12,28,15.80
2018,04,25,12,29,15.90
2018,04,25,12,30,15.90
2018,04,25,12,31,15.90
2018,04,25,12,32,15.90
2018,04,25,12,33,15.90
2018,04,25,12,34,15.90
2018,04,25,12,35,16.00
2018,04,25,12,36,16.00
2018,04,25,12,37,16.00
2018,04,25,12,38,16.00
2018,04,25,12,39,16.00
2018,04,25,12,40,16.00
2018,04,25,12,41,16.00
2018,04,25,12,42,16.00
2018,04,25,12,43,16.00
2018,04,25,12,44,16.00
2018,04,25,12,45,16.00
2018,04,25,12,46,16.00
2018,04,25,12,47,16.00
2018,04,25,12,48,16.00
2018,04,25,12,49,16.00
2018,04,25,12,50,16.00
2018,04,25,12,51,16.00
2018,04,25,12,52,16.10
2018,04,25,12,53,16.10
2018,04,25,12,54,16.10
2018,04,25,12,55,16.10
2018,04,25,12,56,16.10
2018,04,25,12,57,16.10
2018,04,25,12,58,16.20
2018,04,25,12,59,16.20
2018,04,25,13,00,16.20
2018,04,25,13,01,16.20
2018,04,25,13,02,16.20
2018,04,25,13,03,16.30
2018,04,25,13,04,16.30
2018,04,25,13,05,16.30
2018,04,25,13,06,16.30
2018,04,25,13,07,16.30
2018,04,25,13,08,16.40
2018,04,25,13,09,16.40
2018,04,25,13,10,16.40
2018,04,25,13,11,16.50
2018,04,25,13,12,16.50
2018,04,25,13,13,16.50
2018,04,25,13,14,16.50
2018,04,25,13,15,16.60
2018,04,25,13,16,16.60
2018,04,25,13,17,16.60
2018,04,25,13,18,16.60
2018,04,25,13,19,16.60
2018,04,25,13,20,16.60
2018,04,25,13,21,16.60
2018,04,25,13,22,16.50
2018,04,25,13,23,16.50
2018,04,25,13,24,16.50
2018,04,25,13,25,16.50
2018,04,25,13,26,16.40
2018,04,25,13,27,16.40
2018,04,25,13,28,16.40
2018,04,25,13,29,16.40
2018,04,25,13,30,16.40
2018,04,25,13,31,16.50
2018,04,25,13,32,16.50
2018,04,25,13,33,16.50
2018,04,25,13,34,16.50
2018,04,25,13,35,16.60
2018,04,25,13,36,16.60
2018,04,25,13,37,16.60
2018,04,25,13,38,16.60
2018,04,25,13,39,16.60
2018,04,25,13,40,16.60
2018,04,25,13,41,16.60
2018,04,25,13,42,16.60
2018,04,25,13,43,16.60
2018,04,25,13,44,16.70
2018,04,25,13,45,16.70
2018,04,25,13,46,16.70
2018,04,25,13,47,16.70
2018,04,25,13,48,16.70
2018,04,25,13,49,16.70
2018,04,25,13,50,16.80
2018,04,25,13,51,16.80
2018,04,25,13,52,16.80
2018,04,25,13,53,16.80
2018,04,25,13,54,16.80
2018,04,25,13,55,16.80
2018,04,25,13,56,16.80
2018,04,25,13,57,16.80
2018,04,25,13,58,16.80
2018,04,25,13,59,16.80
2018,04,25,14,00,16.80
2018,04,25,14,01,16.80
2018,04,25,14,02,16.80
2018,04,25,14,03,16.80
2018,04,25,14,04,16.80
2018,04,25,14,05,16.80
2018,04,25,14,06,16.80
2018,04,25,14,07,16.80
2018,04,25,14,08,16.80
2018,04,25,14,09,16.80
2018,04,25,14,10,16.80
2018,04,25,14,11,16.80
2018,04,25,14,12,16.70
2018,04,25,14,13,16.70
2018,04,25,14,14,16.70
2018,04,25,14,15,16.70
2018,04,25,14,16,16.80
2018,04,25,14,17,16.80
2018,04,25,14,18,16.80
2018,04,25,14,19,16.80
2018,04,25,14,20,16.80
2018,04,25,14,21,16.80
2018,04,25,14,22,16.80
2018,04,25,14,23,16.80
2018,04,25,14,24,16.80
2018,04,25,14,25,16.80
2018,04,25,14,26,16.80
2018,04,25,14,27,16.90
2018,04,25,14,28,16.90
2018,04,25,14,29,17.00
2018,04,25,14,30,17.00
2018,04,25,14,31,17.10
2018,04,25,14,32,17.10
2018,04,25,14,33,17.10
2018,04,25,14,34,17.20
2018,04,25,14,35,17.20
2018,04,25,14,36,17.30
2018,04,25,14,37,17.30
2018,04,25,14,38,17.30
2018,04,25,14,39,17.30
2018,04,25,14,40,17.40
2018,04,25,14,41,17.40
2018,04,25,14,42,17.40
2018,04,25,14,43,17.40
2018,04,25,14,44,17.40
2018,04,25,14,45,17.50
2018,04,25,14,46,17.50
2018,04,25,14,47,17.50
2018,04,25,14,48,17.60
2018,04,25,14,49,17.60
2018,04,25,14,50,17.60
2018,04,25,14,51,17.70
2018,04,25,14,52,17.70
2018,04,25,14,53,17.70
2018,04,25,14,54,17.80
2018,04,25,14,55,17.80
2018,04,25,14,56,17.80
2018,04,25,14,57,17.90
2018,04,25,14,58,17.90
2018,04,25,14,59,18.00
2018,04,25,15,00,18.00
2018,04,25,15,01,18.10
2018,04,25,15,02,18.10
2018,04,25,15,03,18.10
2018,04,25,15,04,18.20
2018,04,25,15,05,18.20
2018,04,25,15,06,18.20
2018,04,25,15,07,18.20
2018,04,25,15,08,18.30
2018,04,25,15,09,18.30
2018,04,25,15,10,18.40
2018,04,25,15,11,18.40
2018,04,25,15,12,18.50
2018,04,25,15,13,18.60
2018,04,25,15,14,18.60
2018,04,25,15,15,18.70
2018,04,25,15,16,18.70
2018,04,25,15,17,18.80
2018,04,25,15,18,18.80
2018,04,25,15,19,18.90
2018,04,25,15,20,18.90
2018,04,25,15,21,18.90
2018,04,25,15,22,19.00
2018,04,25,15,23,19.00
2018,04,25,15,24,19.10
2018,04,25,15,25,19.10
2018,04,25,15,26,19.10
2018,04,25,15,27,19.10
2018,04,25,15,28,19.10
2018,04,25,15,29,19.10
2018,04,25,15,30,19.10
2018,04,25,15,31,19.10
2018,04,25,15,32,19.10
2018,04,25,15,33,19.00
2018,04,25,15,34,19.00
2018,04,25,15,35,19.00
2018,04,25,15,36,18.90
2018,04,25,15,37,18.90
2018,04,25,15,38,18.90
2018,04,25,15,39,18.80
2018,04,25,15,40,18.80
2018,04,25,15,41,18.80
2018,04,25,15,42,18.80
2018,04,25,15,43,18.80
2018,04,25,15,44,18.80
2018,04,25,15,45,18.80
2018,04,25,15,46,18.80
2018,04,25,15,47,18.80
2018,04,25,15,48,18.80
2018,04,25,15,49,18.70
2018,04,25,15,50,18.70
2018,04,25,15,51,18.70
2018,04,25,15,52,18.70
2018,04,25,15,53,18.70
2018,04,25,15,54,18.70
2018,04,25,15,55,18.70
2018,04,25,15,56,18.70
2018,04,25,15,57,18.70
2018,04,25,15,58,18.70
2018,04,25,15,59,18.80
2018,04,25,16,00,18.80
2018,04,25,16,01,18.80
2018,04,25,16,02,18.80
2018,04,25,16,03,18.80
2018,04,25,16,04,18.80
2018,04,25,16,05,18.90
2018,04,25,16,06,18.90
2018,04,25,16,07,18.90
2018,04,25,16,08,18.90
2018,04,25,16,09,18.90
2018,04,25,16,10,18.90
2018,04,25,16,11,18.90
2018,04,25,16,12,18.90
2018,04,25,16,13,18.90
2018,04,25,16,14,18.90
2018,04,25,16,15,19.00
2018,04,25,16,16,19.10
2018,04,25,16,17,19.10
2018,04,25,16,18,19.20
2018,04,25,16,19,19.20
2018,04,25,16,20,19.20
2018,04,25,16,21,19.20
2018,04,25,16,22,19.20
2018,04,25,16,23,19.20
2018,04,25,16,24,19.20
2018,04,25,16,25,19.20
2018,04,25,16,26,19.20
2018,04,25,16,27,19.20
2018,04,25,16,28,19.20
2018,04,25,16,29,19.20
2018,04,25,16,30,19.20
2018,04,25,16,31,19.20
2018,04,25,16,32,19.30
2018,04,25,16,33,19.30
2018,04,25,16,34,19.30
2018,04,25,16,35,19.30
2018,04,25,16,36,19.30
2018,04,25,16,37,19.30
2018,04,25,16,38,19.30
2018,04,25,16,39,19.30
2018,04,25,16,40,19.30
2018,04,25,16,41,19.40
2018,04,25,16,42,19.40
2018,04,25,16,43,19.50
2018,04,25,16,44,19.50
2018,04,25,16,45,19.60
2018,04,25,16,46,19.70
2018,04,25,16,47,19.70
2018,04,25,16,48,19.70
2018,04,25,16,49,19.80
2018,04,25,16,50,19.80
2018,04,25,16,51,19.90
2018,04,25,16,52,19.90
2018,04,25,16,53,20.00
2018,04,25,16,54,20.00
2018,04,25,16,55,20.10
2018,04,25,16,56,20.20
2018,04,25,16,57,20.30
2018,04,25,16,58,20.30
2018,04,25,16,59,20.40
2018,04,25,17,00,20.40
2018,04,25,17,01,20.40
2018,04,25,17,02,20.50
2018,04,25,17,03,20.50
2018,04,25,17,04,20.50
2018,04,25,17,05,20.50
2018,04,25,17,06,20.50
2018,04,25,17,07,20.50
2018,04,25,17,08,20.50
2018,04,25,17,09,20.50
2018,04,25,17,10,20.40
2018,04,25,17,11,20.40
2018,04,25,17,12,20.40
2018,04,25,17,13,20.40
2018,04,25,17,14,20.40
2018,04,25,17,15,20.40
2018,04,25,17,16,20.40
2018,04,25,17,17,20.40
2018,04,25,17,18,20.40
2018,04,25,17,19,20.50
2018,04,25,17,20,20.60
2018,04,25,17,21,20.60
2018,04,25,17,22,20.70
2018,04,25,17,23,20.80
2018,04,25,17,24,20.90
2018,04,25,17,25,20.90
2018,04,25,17,26,21.00
2018,04,25,17,27,21.10
2018,04,25,17,28,21.20
2018,04,25,17,29,21.20
2018,04,25,17,30,21.30
2018,04,25,17,31,21.40
2018,04,25,17,32,21.40
2018,04,25,17,33,21.40
2018,04,25,17,34,21.40
2018,04,25,17,35,21.50
2018,04,25,17,36,21.50
2018,04,25,17,37,21.40